ROMMA est une association bénévole à but non lucratif. Votre soutien est indispensable : ADHERER à ROMMA ou FAIRE un DON

Val-d'Isère - (73, Savoie)

Haute-Maurienne (1850 m)   Longitude: 6° 58' 52'' E   Latitude: 45° 26' 53'' N Station partenaire n°93
 

Détail journalier du     <<     >>

Température Precipitation Humidité Vent Dir Rafale Dir. rafale Ensol.
Heure (°C) (mm) (%) (km/h) (km/h) (min)
01:00 1.60951N5ONO0
02:00 1.509503ONO0
03:00 1.50961O3ONO0
04:00 1.20962O11O0
05:00 1.20962O10O0
06:00 1.00.2966OSO15O0
07:00 0.80968OSO16O0
08:00 0.80966O16OSO0
09:00 1.10976O13O0
10:00 2.10964O10O0
11:00 2.20904S19O0
12:00 2.608514OSO23OSO0
13:00 3.208114OSO24O0
14:00 3.707615OSO24O0
15:00 4.707214O26O60
16:00 4.407012O26OSO30
17:00 4.707213O26OSO60
18:00 4.106815O32OSO60
19:00 3.207112OSO27OSO0
20:00 2.607111OSO24OSO0
21:00 2.207110OSO23OSO0
22:00 1.80723OSO13O0
23:00 0.90772S8SSO0
minuit 0.80792E6ESE0

Graphique du 12-04-2019

 

Serveur OMMA